GFSNIL_925_temp_000.txt.gz
Temp
15 14 13 12 11 10 10 9 8 7 7 6 6 5 5 4 4 3 3 2 2 2
14 14 13 11 10 10 9 8 7 7 6 5 5 5 4 4 4 3 2 2 2 1
13 13 12 11 10 9 8 7 7 6 5 5 4 4 4 3 3 2 2 1 1 1
12 11 11 10 9 8 7 6 6 5 5 4 4 3 3 3 2 2 1 1 1 0
11 10 9 8 8 7 6 6 5 5 4 4 3 3 2 2 1 1 1 0 0 -0
9 9 8 7 7 6 6 5 4 4 3 3 3 2 2 1 1 0 -0 -1 -1 -1
8 8 7 6 6 5 5 4 4 3 2 2 2 2 1 0 0 -1 -1 -2 -2 -2
7 6 6 5 5 4 4 3 3 2 2 1 1 1 0 0 -1 -1 -2 -2 -2 -3
6 5 5 5 4 3 3 2 2 2 1 1 0 -0 -0 -0 -1 -2 -2 -3 -2 -3
5 5 4 4 3 3 2 2 1 1 0 -0 -1 -1 -1 -1 -1 -2 -2 -2 -3 -3
5 4 3 3 2 2 1 1 0 0 -0 -1 -1 -2 -2 -2 -2 -2 -2 -2 -2 -3
4 3 2 2 2 1 1 0 -0 -1 -1 -2 -2 -3 -3 -2 -2 -2 -2 -2 -3 -3
3 2 2 1 1 0 -0 -1 -1 -1 -2 -3 -3 -3 -3 -3 -3 -3 -3 -3 -3 -3
2 2 1 0 -0 -1 -1 -1 -2 -2 -3 -3 -4 -4 -4 -3 -3 -3 -3 -3 -4 -4

GFSNIL_925_temp_003.txt.gz
Temp
16 14 12 12 11 10 10 9 8 7 7 7 6 6 5 5 4 3 3 2 2 1
13 13 12 11 10 10 9 8 7 7 6 6 5 5 5 4 4 3 2 2 1 1
12 12 11 10 10 9 8 7 7 6 6 5 5 4 4 4 3 2 2 1 1 0
12 11 11 10 9 8 7 7 6 5 5 5 4 4 4 3 2 1 1 0 -0 -0
11 10 10 9 8 7 7 6 5 5 4 4 4 3 3 2 1 1 -0 -1 -1 -2
9 9 9 8 7 6 6 5 4 4 4 3 3 2 2 1 0 -0 -1 -1 -2 -2
8 8 7 6 6 5 4 4 4 3 3 3 2 2 1 0 -0 -1 -1 -2 -2 -2
7 7 6 5 4 4 4 3 3 3 2 2 2 1 -0 -0 -1 -1 -2 -2 -2 -2
5 5 5 4 3 3 3 3 2 2 2 1 1 -0 -1 -1 -1 -2 -2 -3 -3 -2
5 4 4 3 3 3 2 2 1 1 1 -0 -1 -2 -2 -1 -2 -2 -3 -3 -3 -3
4 3 3 3 2 2 1 1 1 -0 -1 -1 -2 -3 -2 -2 -3 -3 -3 -3 -3 -3
3 3 3 2 1 1 1 0 -0 -1 -2 -2 -2 -3 -3 -3 -3 -3 -3 -3 -3 -3
3 3 2 1 1 0 -0 -1 -1 -2 -2 -3 -3 -3 -4 -3 -3 -3 -3 -3 -3 -4
2 2 1 1 0 -1 -1 -2 -2 -2 -2 -3 -4 -4 -4 -4 -3 -3 -3 -3 -3 -3

GFSNIL_925_temp_006.txt.gz
Temp
11 11 11 11 11 11 10 9 7 7 7 6 6 5 5 5 5 4 4 4 4 4
11 12 12 11 11 10 9 7 7 6 6 5 5 5 5 5 4 4 4 4 3 3
11 11 10 10 9 8 8 7 6 6 5 5 5 4 4 4 4 4 4 3 3 3
9 9 10 9 8 8 7 6 6 5 5 5 5 4 4 4 3 3 3 2 2 1
9 10 9 8 7 7 6 6 5 5 5 4 4 3 4 4 3 3 2 2 1 1
9 9 8 7 6 6 5 5 4 4 4 4 3 3 3 3 3 2 1 1 0 0
9 8 7 6 5 5 4 4 4 3 3 2 2 2 2 2 2 2 1 0 -0 -0
7 6 5 5 4 4 4 3 3 2 2 2 1 1 1 2 2 1 1 0 -0 -1
5 5 4 4 3 3 3 2 2 2 1 1 1 0 -1 -1 1 1 0 -0 -0 -1
5 4 4 3 3 3 2 2 2 1 1 1 0 -1 -1 -1 -1 -0 -0 -1 -1 -1
4 3 3 3 3 2 2 2 1 1 0 -0 -1 -2 -2 -2 -1 -1 -1 -1 -1 -1
3 3 3 2 2 1 1 1 0 -0 -0 -1 -1 -3 -3 -3 -1 -1 -1 -1 -1 -2
3 3 2 2 1 -0 0 -0 -1 -1 -1 -2 -2 -3 -3 -3 -2 -1 -1 -1 -1 -1
2 2 1 0 -0 -0 -1 -1 -1 -1 -1 -2 -2 -3 -3 -3 -3 -2 -2 -1 -2 -2

GFSNIL_925_temp_009.txt.gz
Temp
14 12 11 11 11 11 10 10 9 9 9 8 7 7 7 7 6 6 6 5 5 5
12 11 11 11 11 11 11 10 9 8 8 7 7 7 7 7 6 6 6 5 5 5
11 11 12 12 12 11 10 9 8 8 7 7 7 6 6 6 6 5 5 5 4 4
11 12 11 11 11 10 9 8 8 7 7 7 7 6 6 6 5 5 5 4 4 3
11 11 11 10 10 9 8 8 7 7 7 6 6 6 6 5 5 5 4 4 3 2
10 11 10 9 9 8 8 7 6 6 6 6 5 5 5 4 4 4 4 3 2 2
10 9 9 8 8 7 6 6 6 5 5 4 4 3 3 3 3 3 3 2 2 1
10 8 8 7 6 6 6 5 5 4 4 3 3 3 2 2 2 2 2 2 2 1
8 7 6 6 5 5 4 4 4 3 3 3 2 2 0 -0 0 1 1 1 1 0
6 5 5 5 5 4 4 4 3 3 2 2 2 1 -1 -1 -1 -0 1 0 -0 -0
5 5 5 5 4 4 3 3 3 2 2 1 1 0 -2 -2 -1 -0 0 0 -0 -0
5 5 4 4 3 3 3 2 2 1 1 1 1 -0 -2 -2 -2 -1 -0 0 -0 -0
5 4 3 3 2 2 2 1 1 1 1 0 -1 -1 -2 -2 -2 -1 -1 -1 -1 -1
3 3 2 2 2 1 1 1 1 1 1 0 -0 -1 -2 -3 -3 -2 -2 -2 -2 -2

GFSNIL_925_temp_012.txt.gz
Temp
15 12 11 10 10 10 10 10 10 10 10 10 9 9 8 8 7 7 6 6 6 5
14 11 10 10 10 10 10 10 10 9 9 9 8 8 7 7 7 6 6 6 5 5
12 11 11 10 10 10 10 10 9 9 8 8 8 7 7 7 6 6 5 5 5 4
11 11 10 11 11 10 10 9 9 8 8 8 7 7 6 6 6 5 5 5 4 4
11 11 11 10 10 10 9 8 8 8 7 7 7 6 6 6 5 5 4 4 3 3
11 10 10 9 9 9 8 8 7 7 7 6 6 5 5 5 4 4 4 3 3 2
10 9 9 8 8 8 8 7 6 6 6 5 5 4 4 3 3 3 3 3 2 2
9 8 8 7 7 7 6 6 6 5 5 4 4 3 3 3 2 2 1 1 2 1
7 6 6 6 6 6 5 5 5 4 4 3 3 2 2 0 0 0 0 0 1 0
5 4 5 5 5 5 4 4 4 3 3 3 2 2 1 -1 -1 -1 -0 0 0 -0
2 3 4 4 4 4 4 3 3 3 2 2 1 1 -0 -1 -1 -1 -1 -0 -0 -0
2 4 4 4 4 3 3 3 2 2 1 1 0 -0 -1 -2 -2 -2 -2 -1 -1 -1
4 4 3 3 3 3 2 2 2 1 1 0 0 -0 -1 -2 -3 -3 -2 -2 -2 -2
3 3 3 2 2 2 2 1 1 1 1 1 0 -1 -1 -2 -3 -3 -3 -2 -2 -2

GFSNIL_925_temp_015.txt.gz
Temp
15 14 13 11 11 11 11 11 12 12 11 11 11 10 9 9 8 8 7 7 6 6
14 15 13 11 11 10 10 10 11 11 10 10 9 9 8 8 8 7 6 6 6 5
14 14 12 11 10 9 9 10 10 10 9 9 9 8 8 7 7 6 6 5 5 5
12 11 11 10 9 9 9 9 9 9 9 8 8 7 7 7 6 6 5 5 4 4
11 10 10 9 9 8 9 9 8 8 8 7 7 7 6 6 5 5 5 4 4 3
10 10 9 9 8 8 8 8 8 8 7 7 6 6 6 5 5 4 4 3 3 3
10 9 8 7 7 8 8 7 8 7 7 6 6 5 5 4 4 3 3 2 2 2
8 7 7 6 7 7 7 7 7 6 6 5 5 4 4 3 3 2 2 1 1 1
6 6 5 5 5 5 6 6 6 5 5 4 4 3 2 2 1 1 0 0 0 0
4 4 3 3 3 4 5 5 4 4 4 3 2 2 1 -0 -0 -0 -1 -1 -1 -0
3 3 3 3 4 4 4 3 3 3 2 2 1 0 -0 -1 -1 -1 -2 -2 -1 -1
2 1 1 1 1 2 2 2 2 2 1 1 0 -0 -1 -1 -2 -2 -2 -2 -2 -2
1 1 1 2 2 2 3 2 1 1 1 1 0 -0 -1 -1 -2 -3 -3 -2 -2 -2
1 2 3 3 2 2 2 1 1 1 1 0 -0 -1 -1 -1 -2 -2 -3 -3 -3 -3

GFSNIL_925_temp_018.txt.gz
Temp
17 16 15 14 13 12 11 11 12 13 12 12 11 11 11 10 9 9 8 8 7 6
15 13 14 13 12 11 11 11 11 12 12 11 11 10 10 9 8 8 7 7 6 6
14 14 13 12 11 11 11 10 10 11 11 9 9 9 9 8 7 7 6 6 6 5
12 12 12 11 10 10 10 10 9 10 9 9 8 8 8 8 7 6 6 5 5 4
11 11 10 10 10 10 9 9 9 9 9 8 7 6 8 7 6 6 5 5 4 4
10 9 9 9 9 8 8 8 8 9 8 7 5 6 6 6 5 5 4 4 3 3
8 8 8 8 8 7 7 7 7 7 6 6 5 5 5 5 4 4 3 3 2 2
8 7 7 7 6 6 6 5 5 5 4 4 5 5 4 4 3 3 2 2 1 1
6 5 5 5 5 4 4 4 5 4 3 3 3 3 3 3 2 2 1 1 0 -0
4 3 3 3 4 4 4 4 3 2 2 3 2 2 1 1 1 0 -0 -1 -1 -1
2 2 3 4 3 2 2 2 2 2 2 2 1 0 -0 0 -1 -1 -2 -2 -2 -2
3 3 3 1 1 0 -0 -1 -0 -0 0 0 0 -0 -1 -1 -1 -2 -2 -2 -2 -3
1 1 0 0 0 -0 -0 -1 -0 1 1 1 0 -0 -1 -1 -2 -2 -2 -3 -3 -3
1 1 1 0 0 1 1 1 1 0 0 -0 -0 -1 -1 -1 -1 -2 -3 -3 -4 -4

GFSNIL_925_temp_021.txt.gz
Temp
16 17 16 16 15 14 15 14 14 13 13 13 13 12 11 11 11 10 10 9 9 8
16 16 15 15 14 13 12 13 13 12 12 12 12 11 10 10 9 9 9 8 7 7
17 16 15 13 13 12 12 11 10 10 11 11 11 10 10 9 8 8 7 7 6 6
14 14 13 13 12 11 11 10 10 10 10 10 10 9 8 8 7 7 6 6 6 5
12 12 11 10 10 10 10 10 10 9 8 8 8 7 7 6 5 4 5 6 5 5
11 10 9 9 9 9 8 8 8 8 7 7 7 6 5 4 4 4 6 5 4 4
8 8 8 8 7 7 7 6 6 6 6 6 5 4 3 3 3 4 4 4 3 2
7 7 7 7 6 5 5 5 4 5 5 4 3 2 2 2 2 3 3 2 2 1
6 6 5 5 4 3 3 3 5 4 4 3 2 1 1 2 2 2 2 1 0 -0
3 2 2 1 2 1 2 3 3 2 2 1 0 -0 -0 1 1 1 0 -1 -1 -1
1 0 0 1 1 1 2 2 1 0 -0 -1 -1 -1 -1 0 -0 -1 -1 -1 -2 -2
1 0 0 -0 -0 0 1 0 0 0 -0 -1 -1 -2 -2 -0 -1 -1 -2 -2 -3 -3
-0 -0 -1 -1 0 0 1 0 -0 -0 -1 -2 -1 -1 -1 -1 -1 -2 -2 -3 -3 -3
0 0 1 0 0 0 0 -0 -1 -1 -1 -0 -1 -1 -1 -1 -2 -2 -3 -4 -4 -4

GFSNIL_925_temp_024.txt.gz
Temp
15 15 15 16 15 15 15 16 15 14 13 13 13 13 13 12 12 12 11 10 10 9
14 15 14 15 15 14 14 13 13 13 11 12 12 12 12 11 10 10 10 8 9 8
16 16 15 14 13 13 13 12 12 11 11 10 10 11 10 10 9 9 8 7 6 6
15 15 15 14 13 12 12 11 10 9 8 9 9 9 9 9 8 7 6 6 5 5
15 15 14 13 11 11 10 10 9 8 8 8 8 8 7 7 6 6 5 4 3 3
13 13 12 10 9 9 9 8 8 8 7 7 6 6 7 6 5 4 3 3 2 2
9 9 9 8 8 8 8 7 6 6 5 4 4 6 5 5 3 2 2 2 2 2
7 7 6 7 6 6 6 5 5 4 3 4 3 3 4 3 2 1 0 -0 -0 -0
5 5 4 4 3 3 3 2 2 2 2 1 2 1 1 1 1 -0 -0 -0 -0 -2
3 2 2 2 2 1 1 2 1 1 2 1 1 -0 0 0 -1 -1 -1 -2 -1 -1
2 1 1 2 1 0 0 -0 0 1 1 -0 -0 -1 -1 -0 -1 -1 -1 -1 -2 -2
0 -0 -0 -0 -0 -0 0 -0 -1 -0 -0 -0 -1 -1 -1 -1 -1 -1 -2 -3 -3 -3
-0 -0 -0 -0 -0 -0 -0 -1 -1 -1 -1 -2 -2 -2 -3 -1 -1 -2 -2 -3 -3 -3
-0 -0 0 -0 -0 -1 -1 -1 -2 -2 -3 -3 -2 -1 -1 -1 -2 -3 -3 -4 -4 -4

GFSNIL_925_temp_027.txt.gz
Temp
16 14 14 13 14 15 15 14 13 13 13 13 12 12 13 12 12 12 11 11 11 11
15 14 14 13 13 13 14 13 13 12 11 11 11 11 11 11 11 11 11 10 10 10
15 15 13 12 12 13 13 13 12 12 10 10 9 9 9 9 9 10 9 9 8 7
13 14 14 14 15 14 12 12 11 11 10 8 7 7 7 7 7 9 8 7 7 5
11 12 13 13 12 10 11 11 10 10 9 7 6 7 6 6 6 7 6 5 4 3
10 10 10 10 10 9 9 9 9 8 7 6 6 5 5 5 4 5 5 4 2 2
8 8 9 9 8 8 8 8 7 6 5 5 4 4 4 5 4 3 2 1 1 -0
6 6 6 6 6 5 6 5 5 5 4 4 4 4 4 4 3 2 1 0 -0 -0
3 4 4 4 4 4 3 3 3 2 3 2 3 3 3 3 2 1 0 -1 -2 -1
2 2 1 1 2 1 1 2 1 1 1 1 1 2 2 2 1 0 -1 -1 -1 -2
1 0 0 0 0 0 0 0 0 0 0 -0 -0 -1 -1 -0 -1 -3 -3 -2 -2 -2
-0 -0 -1 -1 -1 -1 -0 -0 -0 -0 -1 -1 -1 -2 -2 -2 -2 -2 -3 -3 -3 -3
-0 -1 -1 -1 -1 -1 -0 -1 -1 -1 -2 -2 -2 -3 -2 -2 -2 -2 -3 -3 -3 -3
-0 -0 -0 -1 -1 -1 -1 -1 -2 -3 -3 -3 -2 -2 -2 -2 -2 -3 -3 -4 -4 -4

GFSNIL_925_temp_030.txt.gz
Temp
15 16 16 16 15 15 15 14 14 13 13 13 12 12 12 10 10 11 11 10 12 12
15 15 16 16 15 14 14 14 14 13 12 12 12 11 11 10 10 9 9 9 10 11
13 13 14 14 14 13 13 12 12 12 12 11 10 10 9 9 8 7 7 7 7 6
12 12 13 13 14 13 12 12 11 11 11 10 9 8 8 7 7 6 6 5 5 3
11 11 12 12 12 11 10 10 10 10 9 9 8 7 6 6 6 5 3 1 1 2
10 10 10 9 9 9 9 9 9 8 8 7 6 6 5 5 4 3 2 2 3 2
8 8 8 8 8 8 8 7 7 7 6 6 5 4 4 3 3 3 2 2 2 2
4 5 5 5 6 5 5 5 4 4 4 4 3 3 3 2 2 2 1 2 1 1
2 2 2 2 2 3 3 3 3 2 2 2 2 1 2 2 2 2 1 -0 -1 -1
1 1 1 1 1 1 1 1 1 1 1 1 1 1 2 2 1 0 -0 -1 -1 -2
0 -0 0 0 0 0 0 0 0 0 1 0 0 -0 -1 0 -1 -1 -2 -3 -2 -3
-0 -1 -1 -1 -1 -1 -1 -1 -1 -0 -1 -1 -2 -2 -1 -1 -2 -3 -3 -3 -3 -3
-1 -1 -1 -1 -1 -1 -1 -1 -1 -2 -2 -2 -3 -3 -3 -2 -3 -3 -3 -3 -3 -3
-1 -0 -1 -1 -1 -1 -1 -2 -2 -2 -3 -2 -2 -2 -2 -2 -2 -2 -2 -2 -3 -3

GFSNIL_925_temp_033.txt.gz
Temp
17 17 17 18 18 18 16 16 16 15 14 14 14 14 13 13 13 12 12 12 11 11
16 16 16 17 17 17 17 16 15 15 15 14 14 13 13 12 12 11 10 10 9 8
14 14 15 15 16 16 15 15 13 13 13 13 12 12 12 12 11 10 9 9 8 7
13 13 13 14 15 15 15 14 13 12 12 12 12 11 10 10 9 9 8 7 7 6
12 12 12 13 13 13 12 12 11 11 11 10 10 9 8 8 7 7 5 4 4 4
9 9 10 11 11 11 11 10 9 9 9 8 8 7 7 6 5 4 4 4 3 2
5 6 7 7 8 8 8 8 8 7 7 6 6 6 5 4 3 2 2 1 2 2
3 4 4 4 4 4 4 4 5 5 4 3 4 3 3 3 2 1 1 1 1 1
3 2 2 2 2 2 2 3 3 2 2 2 2 1 2 2 1 1 1 -0 -1 -1
1 1 1 1 1 1 1 1 1 1 1 1 1 1 -0 -0 0 -0 -1 -1 -1 -1
0 0 0 0 0 0 0 0 0 0 0 -0 -0 -1 -1 0 -1 -1 -2 -2 -2 -3
-0 -1 -1 -1 -1 -0 0 -0 -0 -1 -1 -2 -2 -2 -1 -1 -1 -3 -4 -3 -3 -3
-1 -1 -1 -1 -1 -1 -1 -1 -1 -2 -2 -2 -3 -3 -2 -2 -2 -3 -3 -3 -3 -3
-1 -1 -1 -1 -1 -1 -1 -2 -2 -2 -2 -2 -1 -2 -2 -2 -1 -1 -1 -1 -2 -2

GFSNIL_925_temp_036.txt.gz
Temp
15 16 16 16 17 17 18 17 17 17 16 15 15 14 15 15 14 13 13 12 12 11
13 14 14 15 15 15 16 16 15 15 14 14 14 14 14 14 14 13 13 12 11 11
12 13 13 14 14 15 15 15 15 14 13 13 13 13 12 12 12 12 11 10 10 9
11 11 12 12 13 13 14 13 13 12 12 12 12 12 12 11 11 10 10 9 8 7
8 9 9 10 10 11 11 11 11 10 10 10 10 11 10 10 9 9 8 7 6 5
6 6 7 7 8 8 9 9 9 9 9 8 8 8 8 8 7 6 6 5 4 3
4 4 4 5 5 6 6 7 7 7 6 6 6 5 5 5 4 4 3 3 2 2
3 3 3 3 4 4 4 4 4 4 4 4 4 3 4 3 2 2 1 1 1 1
2 1 2 2 2 3 2 2 2 2 2 2 1 1 1 1 1 0 0 -0 -0 -0
1 1 1 1 2 1 1 2 2 1 1 1 1 0 -0 1 0 -0 -1 -1 -1 -1
0 -0 0 1 0 0 1 1 0 0 -0 -0 -0 -1 0 1 0 -1 -1 -2 -2 -2
-1 -1 -0 -0 -1 -0 -0 -0 -1 -1 -1 -1 -1 -2 -1 -0 -1 -2 -3 -3 -2 -2
-0 -1 -1 -1 -1 -1 -2 -2 -2 -3 -2 -2 -2 -2 -1 -1 -2 -2 -2 -3 -2 -2
-0 -0 -0 -1 -1 -2 -1 -1 -1 -1 -1 -1 -2 -2 -2 -1 -2 -2 -2 -2 -2 -3

GFSNIL_925_temp_039.txt.gz
Temp
13 13 14 14 15 15 15 16 16 16 18 17 16 15 15 14 14 14 13 13 11 11
11 12 12 13 14 14 15 15 15 15 15 14 14 15 14 14 13 13 13 13 12 11
10 10 11 12 12 12 13 13 13 14 13 13 13 13 13 13 13 12 12 11 11 10
8 9 9 10 10 10 11 11 12 12 11 11 11 11 11 12 12 12 11 10 10 9
6 7 8 8 8 9 9 10 10 10 10 10 9 9 9 9 8 8 8 8 8 7
5 5 6 6 7 8 8 8 8 8 8 8 8 8 8 7 6 6 5 5 4 4
4 4 4 4 5 5 6 6 6 6 6 6 6 6 6 5 5 4 3 2 2 2
3 3 3 3 3 4 4 4 4 4 4 3 3 3 3 3 2 2 2 1 1 1
2 2 2 2 2 2 2 2 2 2 2 1 1 1 2 2 1 0 0 -0 0 0
1 1 1 1 1 1 1 1 1 1 1 1 1 0 -0 1 1 1 0 -0 -1 -1
0 0 0 0 0 0 1 0 -0 -0 -0 -0 -0 -1 -0 0 0 -1 -1 -1 -1 -2
-0 -0 -0 -0 -0 -0 -0 -1 -2 -1 -1 -1 -1 -1 -0 -0 -1 -1 -2 -2 -2 -2
-0 -0 -0 -0 -1 -2 -2 -2 -3 -3 -2 -2 -2 -1 -1 -1 -2 -2 -2 -2 -2 -2
1 0 -0 -1 -2 -0 -1 -1 -1 -1 -2 -2 -2 -1 -2 -2 -2 -2 -2 -2 -3 -3

GFSNIL_925_temp_042.txt.gz
Temp
11 12 12 12 13 13 14 14 15 15 16 15 15 16 16 15 14 14 14 14 13 12
10 10 11 11 12 12 13 14 14 14 14 14 15 14 14 14 14 13 13 12 12 12
8 9 9 10 11 11 11 12 12 12 13 13 13 12 12 12 12 11 11 10 10 11
7 8 8 9 9 9 10 10 11 11 11 11 11 11 10 10 10 9 9 8 8 8
6 6 7 7 7 7 8 9 9 9 9 9 9 9 9 9 8 7 7 7 6 6
5 5 5 6 6 7 7 7 7 8 8 7 7 7 7 7 7 6 6 6 6 5
4 4 4 4 4 5 5 5 5 5 6 6 6 6 5 5 4 4 4 3 2 2
3 3 3 3 3 3 3 3 3 3 3 4 3 3 3 3 2 2 1 1 1 1
2 2 2 2 2 2 1 1 2 2 1 1 1 1 2 2 1 0 0 0 0 0
1 1 1 1 1 1 1 0 0 0 0 0 0 0 1 1 1 0 -0 -0 -0 -0
1 1 0 1 0 -0 -1 -1 -1 -0 0 0 -0 -0 0 0 0 -0 -1 -1 -1 -1
0 0 0 -0 -1 -1 -2 -1 -1 -1 -0 0 -1 -1 -1 -1 -1 -1 -1 -2 -2 -2
-0 -0 -0 -1 -2 -2 -2 -2 -2 -1 -1 -2 -1 -1 -2 -1 -2 -2 -2 -2 -2 -2
-0 -0 -1 -1 -1 -1 -1 -1 -1 -1 -1 -1 -2 -2 -2 -2 -2 -2 -3 -3 -3 -3

GFSNIL_925_temp_045.txt.gz
Temp
11 11 11 11 12 12 13 14 14 14 14 14 14 15 15 14 14 14 13 13 12 12
9 10 10 10 11 11 12 13 13 13 13 13 14 13 13 13 12 12 11 10 10 10
8 8 8 9 10 10 10 11 11 12 12 12 12 12 11 11 11 10 9 8 8 8
7 7 7 8 8 9 9 9 10 10 10 10 10 10 10 10 9 8 7 8 8 8
6 6 6 6 7 7 7 8 8 8 8 9 9 8 9 8 8 8 7 7 7 7
5 5 5 5 5 6 6 6 6 7 7 7 7 7 6 6 6 6 6 6 5 5
3 4 4 4 4 4 4 4 4 4 4 4 4 4 4 4 4 3 3 3 2 3
2 3 3 3 3 3 3 2 2 2 2 2 2 2 2 3 2 1 1 0 1 1
2 2 2 2 1 2 1 1 1 1 1 1 1 0 2 2 0 1 1 0 0 0
1 1 1 1 1 0 0 0 0 1 1 0 0 0 1 1 1 0 -0 -1 -1 -1
1 1 1 1 -0 -0 -0 -0 0 1 1 0 -0 -0 0 0 0 -0 -1 -1 -1 -1
1 0 0 0 -0 -1 -1 -1 -0 -0 -0 -0 -1 -1 -1 -0 -1 -1 -1 -2 -2 -2
0 0 -0 -0 -1 -1 -2 -2 -2 -1 -1 -1 -1 -2 -2 -1 -1 -2 -2 -2 -2 -3
0 0 -0 -1 -2 -2 -3 -2 -1 -1 -1 -1 -1 -2 -2 -2 -2 -2 -2 -3 -3 -3

GFSNIL_925_temp_048.txt.gz
Temp
10 10 10 10 11 11 12 12 13 13 13 13 13 14 14 13 13 13 12 12 11 11
9 9 9 9 10 10 10 11 11 11 12 12 13 13 13 13 12 11 11 11 11 10
8 8 8 8 9 9 9 10 10 10 10 11 11 11 11 11 10 9 8 8 8 9
7 7 7 7 8 8 8 8 9 9 9 9 9 9 9 9 8 7 7 7 7 8
6 6 6 6 6 6 7 7 7 7 8 8 8 8 8 7 7 6 6 6 6 6
4 4 5 5 5 5 5 5 5 6 6 6 6 6 6 5 5 4 4 4 3 3
4 4 4 3 4 4 4 4 3 3 4 4 4 4 4 4 3 3 2 1 1 1
3 3 3 2 2 2 2 2 2 2 1 1 1 2 2 1 0 1 1 1 1 1
2 2 2 2 2 1 1 1 1 1 1 1 1 1 1 0 1 1 1 1 1 1
1 1 1 1 1 1 1 1 1 0 0 0 1 -0 0 1 1 0 -0 -0 -1 -1
1 1 1 1 0 0 0 1 1 1 1 0 -1 -1 0 0 0 -0 -1 -1 -1 -1
1 1 0 0 -0 -0 -0 0 0 -0 -1 -0 -1 -1 -1 -1 -1 -1 -2 -2 -2 -2
1 0 0 -0 -1 -1 -1 -1 -2 -1 -1 -1 -2 -2 -2 -1 -2 -1 -2 -2 -2 -2
1 0 0 -1 -1 -2 -2 -2 -1 -1 -1 -1 -1 -2 -2 -2 -2 -2 -3 -3 -3 -3

GFSNIL_925_temp_051.txt.gz
Temp
11 11 11 11 11 11 11 11 12 12 12 12 13 13 13 13 13 13 13 12 12 11
10 10 10 9 10 10 10 10 10 10 11 11 12 12 12 12 12 11 11 11 11 11
8 8 8 8 8 8 8 9 9 9 10 10 10 11 11 10 9 9 9 9 9 9
7 7 7 7 7 7 7 8 8 8 8 9 9 9 9 8 7 7 6 7 7 7
6 6 6 6 6 6 6 7 7 7 7 7 7 7 7 7 6 6 6 6 6 5
5 5 5 5 5 5 5 6 5 5 6 5 5 5 5 5 5 4 4 4 4 3
4 4 4 4 4 4 4 4 4 3 3 4 4 4 3 3 2 2 1 1 2 2
3 3 3 3 3 3 3 2 2 1 1 1 2 2 1 1 1 1 1 1 1 1
2 2 2 2 2 2 1 1 1 1 1 0 0 1 0 1 1 1 1 1 1 1
2 2 1 1 1 1 1 1 1 1 1 0 0 -0 1 1 1 0 0 -0 -0 -1
1 1 1 1 1 1 1 1 0 0 -0 -0 -1 -1 0 0 -0 -0 -1 -1 -1 -1
1 1 1 1 0 0 0 0 0 -0 -0 -0 -1 -1 -1 -1 -1 -1 -1 -2 -2 -2
1 1 1 0 -0 -0 -0 -0 -1 -1 -1 -1 -1 -2 -1 -1 -1 -2 -2 -2 -2 -3
1 1 0 -0 -0 -1 -1 -1 -1 -1 -1 -1 -1 -1 -2 -2 -2 -2 -2 -3 -3 -3

GFSNIL_925_temp_054.txt.gz
Temp
12 11 11 10 10 11 11 10 10 10 10 11 11 11 12 13 13 13 13 13 12 12
10 10 10 10 10 9 9 9 9 9 9 10 11 12 11 11 12 12 11 11 11 10
9 9 9 8 8 8 8 8 8 8 9 9 10 10 10 9 9 10 10 10 9 8
8 7 7 7 7 7 7 7 7 8 8 8 8 8 8 7 7 7 7 8 7 7
7 6 7 7 6 6 6 6 6 6 6 6 7 6 7 6 6 6 6 6 5 5
6 6 6 6 5 5 5 5 5 5 5 5 5 5 5 5 4 4 4 4 4 4
5 5 5 5 5 4 3 4 4 3 3 3 3 3 4 3 2 2 2 2 2 2
4 4 4 3 3 3 3 3 3 2 2 2 1 1 2 2 2 1 1 1 2 1
4 3 2 2 2 2 2 2 2 1 1 1 1 1 1 1 1 1 1 1 1 1
3 2 2 2 2 2 1 1 1 1 1 1 0 0 1 1 0 0 1 0 -0 -0
2 2 1 1 1 1 1 1 1 0 0 0 -0 -0 1 1 1 1 0 -0 -0 -1
2 1 1 1 1 1 1 0 1 -0 -0 -1 -1 -1 0 1 0 -0 -1 -1 -2 -1
1 1 1 1 1 0 0 0 -0 -0 -1 -1 -1 -1 -0 -0 -1 -2 -1 -2 -2 -2
1 1 1 1 0 -0 -0 -1 -1 -1 -1 -1 -1 -1 -1 -1 -2 -1 -1 -1 -2 -2

GFSNIL_925_temp_057.txt.gz
Temp
13 13 13 12 12 12 13 12 11 11 11 11 11 12 12 12 12 12 12 13 13 13
12 11 12 11 11 11 11 10 10 10 10 10 10 10 11 11 11 11 11 11 11 11
11 10 10 10 10 10 9 9 9 9 9 9 9 9 9 10 10 10 10 10 9 9
10 9 9 9 10 9 8 8 8 8 8 8 8 9 9 8 8 9 8 8 8 8
9 9 9 9 8 8 8 7 7 7 7 7 7 8 8 7 7 7 8 7 7 6
9 8 8 8 8 7 7 6 6 6 6 6 6 6 7 7 6 6 6 6 6 5
8 8 8 8 7 6 6 5 5 5 5 4 4 4 3 4 4 3 3 3 3 3
7 7 6 6 5 4 3 3 3 3 3 3 2 2 2 2 2 2 2 2 2 2
6 5 5 4 3 3 2 2 2 2 2 2 2 2 2 2 2 2 1 1 1 2
6 4 3 3 2 2 2 2 2 2 2 1 1 1 1 1 1 1 1 1 1 0
5 3 2 2 2 2 1 1 1 1 1 1 0 -0 1 0 0 0 0 0 -0 -0
4 3 2 2 1 1 1 1 1 1 0 -0 -1 -0 1 1 0 -0 -0 -1 -1 -0
3 2 2 1 1 1 1 1 0 0 -0 -0 -1 -0 0 0 -1 -1 -1 -1 -1 -0
2 2 2 1 1 1 0 0 -0 -0 -0 -0 -0 -1 -1 -0 -1 -0 -0 -0 -1 -1

GFSNIL_925_temp_060.txt.gz
Temp
14 15 14 14 14 13 13 13 12 12 12 12 11 12 12 12 12 13 13 13 13 13
13 13 12 13 13 12 11 11 11 11 11 10 10 10 10 10 11 12 11 11 11 12
12 13 13 12 11 11 10 10 10 10 9 9 9 9 9 10 10 10 10 10 10 10
14 12 11 11 10 10 9 9 9 8 8 8 8 9 9 8 8 9 9 9 9 8
10 10 10 10 9 9 8 8 8 7 7 7 7 8 8 8 7 7 8 7 7 7
10 9 9 9 8 8 7 7 6 6 6 6 6 6 7 7 7 7 7 6 6 6
9 9 8 8 8 7 6 6 6 6 5 5 5 5 5 5 5 5 5 4 4 4
8 8 7 7 6 6 5 5 5 4 4 4 4 3 3 3 3 3 3 3 3 2
7 7 6 5 5 4 4 3 3 3 3 2 2 2 2 2 2 2 2 2 1 2
6 5 5 4 3 2 3 3 2 2 2 2 1 1 1 1 2 2 1 1 1 1
6 5 4 3 2 2 2 2 2 2 1 1 1 0 1 1 1 1 1 1 0 0
5 4 3 2 2 2 2 1 1 1 1 1 -0 -1 -0 1 1 0 0 0 0 -0
5 4 3 3 2 2 2 1 1 1 1 -0 -0 -1 0 0 -0 -0 -0 -0 -0 -0
4 3 2 2 2 2 1 1 1 1 0 0 -0 0 0 0 -0 -0 -0 -0 -1 -1

GFSNIL_925_temp_063.txt.gz
Temp
16 16 15 15 15 15 14 14 13 13 13 13 12 12 12 11 12 12 12 13 13 13
15 15 14 14 14 13 13 13 13 12 12 12 11 11 11 10 10 11 12 12 12 12
16 15 14 14 14 13 12 12 11 11 10 10 10 10 10 10 10 10 10 10 10 10
13 15 16 14 12 11 11 11 10 10 9 9 9 9 9 9 9 9 9 9 9 9
11 11 11 10 10 10 10 9 8 8 8 8 8 8 8 8 8 8 8 8 8 8
11 11 10 10 10 9 9 8 7 7 7 7 7 7 7 7 8 7 8 8 7 7
10 10 9 9 8 8 7 7 7 6 6 6 6 6 6 6 6 6 6 6 6 5
9 9 8 8 8 7 7 6 6 5 5 5 4 4 4 4 4 4 4 4 4 4
8 8 7 7 6 6 6 5 5 4 3 3 3 3 3 3 3 3 3 3 2 2
8 7 6 6 5 5 4 4 3 3 2 2 2 2 2 2 2 2 2 2 1 1
7 7 6 5 4 3 2 2 2 2 2 2 1 1 1 2 1 1 1 1 1 1
7 6 5 4 4 2 2 2 2 2 1 1 1 0 1 1 1 0 0 0 0 0
7 6 5 4 3 2 2 2 2 1 1 1 1 -1 -1 1 1 0 -0 -0 -0 -0
6 5 4 3 3 3 2 1 1 1 1 1 0 -0 -1 -0 -0 0 -0 -0 -0 -1

GFSNIL_925_temp_066.txt.gz
Temp
16 17 16 15 15 15 14 15 15 15 14 13 14 12 12 12 12 12 12 12 12 12
15 15 16 15 15 16 15 15 15 14 14 14 13 13 11 11 11 11 11 11 11 12
14 14 15 16 17 16 15 15 14 13 12 12 11 11 10 10 10 10 10 10 11 11
14 13 13 13 13 13 13 12 11 12 11 10 9 9 9 9 9 9 9 10 9 9
13 13 13 12 11 11 11 11 10 10 9 9 8 8 8 8 8 9 8 8 8 8
12 12 11 11 10 10 10 9 9 8 8 7 7 7 7 7 7 8 8 7 7 7
11 11 10 10 10 9 8 8 8 7 7 6 6 6 6 6 6 7 7 7 7 6
10 10 10 9 9 8 8 7 6 6 6 5 5 5 5 4 5 5 5 5 5 5
10 9 9 8 8 7 6 6 5 5 5 4 4 4 4 3 3 3 3 3 3 3
9 9 8 7 6 6 5 5 4 4 4 4 3 3 3 3 2 2 2 2 2 2
9 8 7 6 6 5 4 3 3 3 3 3 2 2 2 2 2 2 2 1 1 1
9 7 6 5 5 4 3 3 3 3 3 2 2 1 1 2 1 1 1 1 1 1
9 8 6 6 5 4 3 3 3 3 2 2 1 1 0 1 1 0 0 0 0 0
8 7 7 5 4 3 3 2 2 2 1 1 1 1 -0 0 0 0 0 -0 -0 -0

GFSNIL_925_temp_069.txt.gz
Temp
15 16 16 16 16 16 14 15 15 17 16 16 16 15 14 13 12 12 12 11 11 11
15 14 14 14 15 16 14 15 16 16 15 14 14 13 12 11 11 11 11 10 10 10
15 14 13 13 13 14 14 14 14 13 13 12 11 11 11 11 11 10 10 10 10 10
13 13 13 13 12 14 13 12 12 12 12 12 11 10 10 10 9 9 9 9 10 10
13 13 12 13 13 13 12 12 12 12 11 10 10 9 8 8 8 8 8 9 8 8
12 12 12 12 12 12 12 11 11 10 10 9 8 8 7 7 7 7 7 7 8 7
11 12 11 11 11 10 10 10 9 9 8 7 7 6 6 6 6 6 6 7 7 6
11 10 10 10 10 9 9 8 8 7 6 6 6 5 5 5 5 5 5 5 5 5
10 9 9 9 9 8 8 7 6 6 5 5 5 5 4 4 4 3 3 3 3 4
9 9 9 8 8 7 7 6 6 5 4 4 4 4 3 3 3 3 3 3 2 2
9 9 8 7 7 6 6 5 5 4 4 3 3 3 2 3 2 2 2 2 2 2
9 8 8 7 6 6 5 4 4 3 4 3 2 2 2 2 2 2 1 1 1 1
7 8 8 7 6 5 4 4 3 3 3 2 2 2 1 2 1 1 1 1 1 0
7 8 8 7 6 5 4 3 3 3 2 2 2 1 1 0 1 1 0 -0 0 0

GFSNIL_925_temp_072.txt.gz
Temp
16 15 15 14 15 15 17 16 15 15 14 14 15 14 14 14 13 13 13 12 12 11
15 14 14 13 13 14 14 15 15 15 14 13 12 13 13 12 12 12 11 11 10 10
15 14 14 13 13 13 13 13 14 12 12 12 12 12 12 11 11 10 10 10 9 9
13 13 13 13 12 12 12 11 11 12 12 12 11 11 10 10 10 9 9 9 9 9
12 12 12 12 12 12 12 12 12 11 11 11 10 9 9 9 9 8 8 8 8 8
11 11 12 12 12 12 11 11 10 10 10 10 9 9 8 8 8 7 7 7 7 8
11 11 11 11 11 11 10 10 10 10 9 9 8 8 7 7 6 6 6 6 6 7
10 10 10 10 10 10 10 9 9 9 8 8 8 7 6 6 6 5 5 5 5 5
9 9 10 9 9 9 9 8 8 8 7 7 6 6 5 5 4 4 4 4 4 4
8 9 9 9 8 8 8 7 7 7 6 6 5 4 4 4 3 3 3 3 3 3
7 8 8 8 8 7 7 6 6 6 5 4 4 4 3 3 3 3 2 2 2 2
6 6 7 7 7 6 6 5 5 5 4 4 3 3 2 2 2 2 2 2 1 1
5 5 6 7 7 6 5 5 4 4 3 3 3 2 2 1 1 1 1 1 1 1
5 5 5 6 6 6 5 4 4 3 3 3 3 2 1 1 1 1 1 1 1 0

GFSNIL_925_temp_075.txt.gz
Temp
15 15 15 14 15 15 15 15 16 15 14 14 15 13 12 12 13 13 13 12 12 12
15 15 15 15 14 14 14 14 14 14 14 13 14 13 11 12 13 12 12 12 11 11
13 13 14 14 13 13 13 13 13 13 13 12 11 12 12 12 12 11 11 10 10 10
13 13 13 13 12 12 12 12 12 11 11 11 11 12 12 11 11 11 10 9 9 9
12 12 12 12 12 11 11 12 12 11 12 11 11 11 11 10 10 9 9 9 8 8
10 11 11 11 11 11 11 11 11 11 11 11 10 10 9 9 8 8 8 8 8 7
9 10 10 10 11 11 11 11 11 10 10 10 9 9 8 8 7 7 7 7 6 6
9 9 9 10 10 9 9 9 9 9 9 9 8 8 7 7 7 6 6 6 5 5
7 8 9 8 9 9 9 9 8 8 8 8 7 7 6 6 6 5 5 4 4 4
6 6 7 8 8 8 8 8 7 7 7 6 6 5 5 4 4 4 4 3 3 3
5 6 6 6 7 7 7 6 6 6 6 6 5 5 4 4 3 3 3 3 3 2
4 4 5 5 6 6 6 6 6 6 6 5 5 4 3 3 2 2 3 2 2 2
4 4 4 4 4 5 5 6 5 5 5 5 4 3 3 2 2 2 2 2 2 1
4 4 4 4 4 4 5 4 4 4 4 4 3 3 3 2 2 2 2 1 1 1

GFSNIL_925_temp_078.txt.gz
Temp
13 14 15 15 15 15 14 14 14 14 14 15 14 14 14 14 14 13 12 12 12 12
13 13 13 14 13 14 14 13 13 13 14 14 13 13 13 12 12 11 12 12 11 10
12 13 13 13 13 13 12 13 13 13 13 13 13 12 12 12 11 12 11 11 10 10
11 12 12 12 12 12 12 12 12 13 12 12 11 12 11 11 11 11 11 11 10 9
10 10 11 11 11 11 10 11 12 12 12 11 11 11 11 11 11 10 10 10 9 9
9 10 10 10 10 11 10 10 10 10 10 10 10 11 11 9 9 9 9 8 8 8
8 8 9 9 9 9 9 10 9 9 9 9 9 9 8 9 9 9 8 7 7 7
7 7 7 8 9 9 9 9 9 9 9 9 9 9 9 9 7 7 6 6 6 6
6 6 6 7 7 7 8 8 8 8 7 8 7 8 8 7 6 5 5 5 5 5
5 5 6 5 6 6 6 7 7 6 7 6 6 7 7 7 5 5 5 4 4 4
5 5 5 5 5 6 6 6 6 6 6 6 5 6 6 5 4 4 4 3 3 3
3 4 4 4 5 5 5 5 5 5 5 4 5 5 4 4 3 3 3 3 3 3
3 3 3 4 4 4 4 4 3 5 4 5 5 5 4 3 3 2 3 2 2 2
3 3 3 3 3 3 3 3 3 3 4 4 4 3 3 3 3 2 3 2 1 1

GFSNIL_925_temp_081.txt.gz
Temp
14 15 15 15 14 14 15 14 14 15 14 15 16 16 14 14 13 13 13 13 13 13
13 13 13 13 14 15 14 15 14 14 14 14 14 14 14 13 13 13 13 12 12 11
12 13 13 13 13 13 13 13 13 13 13 13 13 13 12 12 12 12 11 11 12 11
12 11 12 12 12 12 12 12 12 12 13 13 12 12 12 12 12 11 11 11 11 11
11 11 11 11 11 11 11 11 12 12 12 12 12 11 11 11 11 11 10 10 10 10
10 10 10 11 11 11 11 11 11 11 10 11 10 11 11 11 11 10 10 10 9 9
9 9 9 9 10 10 10 10 10 10 10 10 9 9 10 10 10 9 9 9 9 9
8 8 8 8 8 9 9 9 10 10 10 9 9 9 9 9 9 9 8 8 8 7
7 7 7 7 7 8 8 9 9 9 9 9 8 8 8 8 8 8 8 7 6 6
6 6 6 6 7 7 7 8 8 8 8 8 8 8 8 8 7 7 6 6 6 5
5 4 5 6 6 6 6 7 7 7 7 7 7 7 7 7 7 6 5 5 5 5
4 4 4 4 5 4 5 5 6 6 6 6 6 6 6 6 5 5 4 4 4 4
4 4 4 3 4 4 4 4 4 4 5 5 5 5 5 4 4 4 4 3 3 3
4 4 3 3 3 3 3 3 3 4 3 4 4 4 5 4 3 3 3 3 3 2

GFSNIL_925_temp_084.txt.gz
Temp
13 14 16 16 14 16 14 15 15 15 16 17 14 15 15 14 14 13 14 14 14 13
13 13 13 13 14 15 15 15 15 16 16 15 15 14 14 13 13 13 14 13 13 12
12 12 12 13 13 13 13 13 13 13 13 13 14 13 13 13 13 13 12 12 12 12
11 11 12 12 12 12 12 12 12 12 12 13 13 13 13 13 13 12 12 11 12 11
10 11 11 11 11 11 11 11 11 12 12 12 12 12 12 12 12 12 11 11 11 11
9 9 9 9 10 10 11 11 11 11 11 11 11 11 11 11 11 11 11 11 11 11
8 8 8 8 8 9 9 10 10 10 10 10 10 10 10 10 10 10 10 10 10 10
7 7 7 7 7 7 8 8 9 10 10 10 9 9 9 9 9 9 10 9 9 9
6 6 6 6 6 6 7 7 8 9 9 9 9 9 9 9 9 9 9 9 8 8
5 4 4 5 5 5 6 6 7 7 8 8 8 8 8 8 8 8 8 8 7 7
4 4 4 4 4 4 4 4 5 6 7 7 7 8 8 8 7 7 7 7 7 6
4 4 4 4 3 3 3 3 3 5 5 5 6 7 7 7 6 6 6 6 6 5
4 4 4 3 3 3 2 2 2 3 4 5 4 5 6 6 6 5 5 5 4 4
4 4 4 4 4 3 3 3 3 3 4 3 4 4 4 5 4 4 4 4 4 3

GFSNIL_925_temp_087.txt.gz
Temp
12 13 14 15 15 15 15 15 16 15 15 15 15 14 15 14 14 14 14 14 14 14
12 12 12 12 13 14 14 14 14 14 15 15 14 14 13 14 14 13 13 13 13 13
11 11 12 12 12 12 12 12 12 13 13 13 13 13 13 13 13 13 13 13 13 12
10 10 11 11 11 11 12 12 13 12 12 12 12 13 13 13 13 13 13 12 12 12
9 9 10 9 10 10 10 11 11 11 11 11 12 12 12 12 12 12 12 12 11 11
8 8 8 8 9 9 10 10 10 10 10 11 10 11 11 11 12 12 12 12 11 11
7 7 7 7 7 7 8 8 9 9 10 10 10 10 10 10 10 10 11 11 11 11
6 6 6 6 6 6 7 7 7 8 9 9 9 10 9 9 9 9 9 9 9 10
6 6 5 5 5 5 5 5 6 7 7 8 8 9 9 9 8 8 9 9 9 9
5 4 4 4 4 4 3 4 4 5 6 6 7 8 8 8 8 8 8 8 8 8
4 4 4 4 4 3 3 3 3 3 4 5 5 6 6 7 7 7 7 8 8 8
4 4 4 4 4 3 3 3 3 3 3 4 5 5 5 6 6 7 7 7 7 7
4 4 4 4 4 3 3 3 3 3 3 3 4 4 4 4 5 5 6 6 6 6
3 3 3 3 3 3 3 3 3 2 2 2 3 4 4 3 4 4 5 4 4 4

GFSNIL_925_temp_090.txt.gz
Temp
12 13 13 13 13 14 14 13 13 14 14 14 14 14 15 15 14 14 14 14 14 14
11 11 12 12 12 11 12 13 13 13 13 13 14 14 13 14 14 13 14 14 13 14
10 10 10 10 11 11 11 12 12 13 13 13 13 14 14 14 14 14 14 14 13 13
9 9 10 10 10 10 11 11 11 11 11 11 12 12 12 13 13 13 13 13 13 13
8 8 8 8 8 9 9 9 10 10 10 11 11 11 11 11 12 12 12 12 12 12
7 7 7 7 7 7 7 8 9 9 9 9 10 10 10 11 11 11 12 12 11 12
6 6 5 6 6 6 6 7 7 7 8 8 9 9 9 10 10 10 11 11 11 11
5 5 5 5 5 5 5 5 5 5 6 7 8 8 8 9 9 9 9 9 10 10
5 5 5 4 4 4 4 4 4 3 4 5 6 6 7 7 8 8 8 8 8 8
5 4 4 4 4 4 4 4 3 3 3 4 4 5 5 6 6 7 8 8 8 8
4 4 4 4 4 4 4 3 3 3 3 3 4 5 5 5 5 6 6 7 7 7
4 4 4 3 3 3 3 3 3 3 3 2 3 3 4 4 4 5 5 6 6 6
4 3 3 3 3 3 3 3 3 3 3 2 2 2 2 3 3 3 4 5 6 6
3 3 3 2 2 2 2 2 2 2 2 2 2 1 1 2 2 3 3 3 4 5

GFSNIL_925_temp_093.txt.gz
Temp
10 10 11 12 12 13 13 13 13 13 13 13 13 13 13 14 14 14 14 14 14 14
8 9 9 9 11 11 11 12 12 13 13 13 13 13 13 13 13 14 13 14 13 13
9 9 9 9 8 8 9 10 10 11 11 12 12 13 13 13 13 13 13 13 13 13
8 8 8 8 8 8 9 9 9 10 11 11 11 12 12 12 13 13 13 13 13 13
7 7 7 6 7 7 8 8 8 8 9 9 10 10 10 11 11 11 12 12 12 12
5 6 6 6 6 6 6 6 7 8 8 8 9 9 9 9 10 10 11 11 11 12
5 4 5 5 5 5 5 6 6 5 5 6 7 7 8 8 8 9 9 10 10 10
5 5 5 5 5 5 5 5 4 4 5 5 5 5 6 7 7 7 8 8 9 9
5 4 4 4 4 4 4 4 4 4 4 4 4 4 4 5 5 6 7 7 8 8
4 4 4 4 4 4 3 3 3 3 3 3 3 4 3 3 4 5 5 6 6 7
4 4 4 3 3 3 3 3 3 3 3 2 3 3 3 2 3 3 5 6 6 6
4 3 3 3 3 2 2 2 2 2 2 2 2 2 2 1 2 2 3 3 5 5
3 2 2 2 2 2 2 2 2 2 2 2 1 2 1 1 1 2 3 3 3 4
2 2 2 1 1 1 1 1 1 1 1 1 1 1 1 1 1 1 1 2 2 3

GFSNIL_925_temp_096.txt.gz
Temp
8 9 10 9 10 11 11 12 13 13 13 13 13 13 13 14 14 15 14 14 14 13
8 8 7 8 9 9 9 10 11 12 12 13 13 14 14 13 13 13 13 13 13 13
8 8 7 8 8 8 8 8 9 10 10 10 11 11 12 12 13 13 13 13 13 13
6 6 6 6 7 7 8 8 8 8 9 9 9 10 10 10 11 12 13 13 12 12
5 6 6 5 5 5 6 6 7 8 8 8 8 8 9 9 9 10 10 11 11 12
5 5 5 5 5 5 5 5 5 5 6 6 6 7 7 7 8 8 9 9 10 11
4 5 5 5 5 5 5 5 5 5 5 5 5 5 5 5 6 7 7 8 8 9
4 4 4 4 4 4 4 4 4 5 5 4 4 4 3 3 4 5 5 6 7 8
4 4 4 4 3 4 3 3 3 4 3 4 3 3 3 3 3 3 4 5 5 6
3 3 3 3 3 3 3 3 3 3 3 3 4 3 3 2 2 2 3 3 4 5
3 3 3 3 2 2 2 2 2 2 2 2 2 2 1 1 2 2 2 2 2 3
2 2 2 1 1 1 1 1 1 1 1 1 2 2 1 1 1 1 1 2 3 2
2 2 1 1 1 1 1 0 0 0 0 0 1 1 1 0 1 1 1 1 1 2
1 1 1 0 0 0 -0 -0 -0 -0 -0 -0 -0 -0 -0 -0 0 0 -0 0 0 1

GFSNIL_925_temp_099.txt.gz
Temp
7 7 7 7 8 8 9 9 11 11 12 13 13 13 13 13 13 13 13 13 14 14
6 6 6 7 7 7 8 9 9 9 10 11 11 11 12 13 13 13 14 14 14 14
6 7 7 7 7 7 7 7 8 9 9 9 10 9 11 11 11 12 13 13 13 13
6 6 6 6 6 6 7 7 7 7 7 8 8 8 9 9 10 10 10 11 12 13
5 5 5 5 5 5 6 6 6 6 6 6 7 7 7 7 7 7 8 9 10 10
5 5 4 4 4 5 5 5 5 6 5 5 5 5 5 4 5 6 7 7 7 7
4 4 4 4 5 4 4 4 4 4 4 5 5 5 5 5 5 5 5 5 6 6
4 4 4 4 4 4 4 4 4 5 5 5 4 3 3 3 4 4 5 5 5 5
3 3 3 3 3 3 3 3 3 3 3 3 3 3 2 2 2 2 2 2 2 4
3 3 3 3 3 3 2 2 2 2 2 2 2 1 1 1 2 2 2 1 2 2
3 2 2 2 1 1 1 1 1 1 1 1 2 1 1 1 1 1 1 1 1 1
1 1 1 0 0 0 -0 -0 -0 -0 -0 -0 1 1 1 -0 0 0 0 0 0 1
1 1 1 0 0 0 -0 -1 -1 -0 -0 -0 -0 0 0 -1 -1 -0 -0 -0 -0 -0
0 -0 -0 -1 -1 -1 -1 -1 -1 -1 -1 -1 -1 -1 -1 -1 -1 -1 -1 -0 -1 -1

GFSNIL_925_temp_102.txt.gz
Temp
7 6 5 7 6 6 7 7 8 10 10 10 11 12 13 13 13 12 12 12 12 12
6 7 6 7 6 6 7 7 7 8 9 9 9 10 10 11 11 12 12 12 12 13
4 4 5 5 5 6 6 6 6 6 7 8 8 8 9 8 9 10 10 11 12 13
5 5 5 5 5 5 5 6 5 6 6 6 6 6 7 7 7 8 8 8 9 10
5 5 5 5 5 5 5 5 5 5 6 5 5 6 6 6 6 6 6 6 7 7
5 5 5 5 4 5 5 5 5 5 5 5 5 6 6 6 6 6 6 6 6 7
5 5 4 4 4 4 4 4 4 4 4 4 4 4 4 4 5 5 5 5 5 6
4 4 4 3 3 3 3 3 3 3 3 4 4 3 3 3 4 4 4 4 4 4
3 3 3 3 3 3 3 3 3 2 2 2 3 2 1 2 3 3 3 3 4 4
3 3 3 3 3 2 2 2 2 2 2 2 2 1 1 1 2 3 3 3 2 3
2 2 2 2 2 1 1 1 1 1 1 1 1 -0 -0 -0 1 2 2 2 2 2
1 1 1 1 1 1 0 0 0 0 0 -0 -0 -0 -1 -1 1 1 1 2 2 2
0 0 0 0 0 -0 -0 -0 -0 -0 -1 -1 -1 -1 -1 -1 0 1 2 2 2 2
-0 -0 -1 -1 -1 -1 -1 -1 -1 -1 -0 -0 -0 -1 -1 -1 -1 0 1 1 1 1

GFSNIL_925_temp_105.txt.gz
Temp
5 5 5 6 6 6 5 6 6 7 7 8 9 9 9 9 10 12 13 13 13 12
6 6 6 6 6 7 7 7 6 7 6 7 7 8 8 7 8 9 9 10 11 12
5 5 6 6 6 6 7 7 7 7 7 7 7 7 6 6 6 7 7 7 8 9
6 6 6 6 6 6 6 6 6 6 6 6 6 7 7 7 6 6 6 7 7 7
6 6 6 6 6 6 6 6 6 5 5 6 6 6 6 6 7 7 7 7 7 7
7 7 7 6 6 6 6 6 6 6 5 5 5 5 5 5 6 6 6 6 6 6
6 6 6 6 5 5 5 5 5 5 5 4 5 5 3 4 4 5 5 5 5 5
5 5 5 5 5 5 5 4 4 4 4 4 4 4 2 2 3 4 4 4 4 4
5 5 5 4 4 4 4 4 4 3 3 3 3 3 2 1 1 3 3 4 3 3
5 4 4 4 3 3 3 3 3 3 3 3 2 2 1 1 1 2 3 3 3 3
4 3 3 2 2 2 2 2 2 2 2 2 1 1 1 0 0 1 2 2 2 3
2 2 2 2 2 1 1 1 1 1 1 1 0 0 -0 -0 -0 1 1 2 3 3
2 1 1 1 1 0 0 0 -0 -0 -0 0 0 0 1 -0 -0 0 1 2 2 2
1 1 1 0 -0 -0 -0 -0 -0 -0 0 1 1 1 0 -1 -1 -1 -0 -0 1 1

GFSNIL_925_temp_108.txt.gz
Temp
6 6 6 6 5 5 7 7 7 7 7 7 7 7 8 6 7 7 7 7 9 11
6 6 6 6 6 6 8 7 7 7 7 7 7 6 6 5 6 5 5 5 6 7
6 6 6 6 6 7 6 6 6 6 6 6 6 6 7 7 7 5 4 4 5 6
6 6 6 6 6 6 6 6 6 6 6 5 5 6 6 6 6 6 6 5 5 6
7 7 7 6 6 6 6 5 5 5 5 5 5 5 5 4 4 5 5 5 5 6
6 6 6 5 5 5 5 5 4 4 4 4 4 4 4 3 3 4 4 4 4 5
6 5 5 5 5 4 4 4 4 4 4 4 3 4 3 3 2 2 3 4 4 4
5 5 5 4 4 4 3 3 3 3 3 3 3 3 2 1 1 1 2 2 3 3
5 5 4 4 3 3 3 3 3 3 3 2 2 2 2 1 1 1 1 1 2 2
4 4 3 3 2 2 2 2 2 2 2 2 2 1 2 1 1 0 0 1 1 2
3 3 2 2 2 2 1 1 1 1 0 0 0 0 1 1 0 -0 -0 0 1 2
2 2 1 1 1 1 0 0 -0 -0 -0 -0 -0 0 0 1 0 -1 -1 -0 1 1
1 1 1 1 1 0 -0 -0 -0 -0 -0 0 0 1 1 1 -0 -1 -1 -1 -1 -1
1 1 1 1 0 -0 -0 -0 -0 -0 -0 -0 -1 -1 -0 -0 -1 -1 -1 -2 -2 -2

GFSNIL_925_temp_111.txt.gz
Temp
6 6 6 6 7 7 7 6 6 7 7 6 6 6 6 6 6 6 6 5 5 6
6 6 6 6 6 6 6 6 6 6 6 6 6 6 6 6 5 5 5 4 4 4
6 6 6 6 6 6 6 6 6 6 5 5 5 5 5 5 5 5 5 4 4 4
7 6 6 6 6 5 5 5 5 5 5 5 4 4 4 4 4 4 4 4 4 4
6 6 6 5 5 5 5 4 4 4 4 4 4 3 3 3 3 3 3 3 4 4
6 6 5 5 5 4 4 4 4 3 3 3 3 3 3 2 2 2 2 2 2 3
6 5 5 4 4 4 3 3 3 3 3 2 2 2 2 2 2 1 1 1 2 2
5 5 4 4 3 3 3 2 2 2 2 2 2 2 2 2 1 1 0 0 0 1
5 4 4 3 3 2 2 2 2 1 1 1 1 1 1 1 1 0 -0 -0 -0 0
4 4 3 2 2 1 1 1 1 0 0 0 -0 0 0 1 1 0 -0 -1 -1 -0
3 3 2 2 1 1 1 0 -0 -0 -0 -0 -0 -0 -0 0 1 0 -0 -1 -1 -1
3 2 1 1 1 0 0 -0 -0 -1 -1 -1 -0 -1 -0 0 -0 -1 -1 -1 -1 -1
2 1 1 1 1 0 -0 -0 -1 -1 -1 -1 -1 -1 -1 -1 -1 -1 -2 -2 -2 -2
1 1 1 1 0 -0 -1 -1 -1 -2 -2 -2 -2 -3 -2 -2 -2 -2 -2 -3 -3 -3

GFSNIL_925_temp_114.txt.gz
Temp
7 7 6 6 6 6 6 6 6 6 7 6 6 6 6 6 5 5 5 5 4 4
7 6 6 6 6 6 5 5 5 5 5 5 5 5 5 5 4 4 4 4 4 4
6 6 6 6 5 5 5 5 5 5 5 4 4 4 4 4 4 4 3 3 3 3
6 6 6 5 5 5 5 4 4 4 4 4 3 3 3 3 3 3 2 3 2 3
6 6 6 5 5 4 4 4 3 3 3 3 3 3 2 2 2 2 1 1 1 2
6 5 5 4 4 4 3 3 3 3 2 2 2 2 2 2 1 1 1 0 0 0
6 5 5 4 4 3 3 2 2 2 1 1 1 1 1 1 1 1 0 -0 -0 -0
5 5 4 4 3 2 2 2 1 1 1 0 0 0 1 1 1 0 0 -0 -0 -1
5 5 4 3 2 2 1 1 1 0 0 -0 -0 -0 0 1 0 0 -0 -1 -1 -1
5 4 3 2 2 1 1 1 0 -0 -0 -0 -0 -1 -0 0 0 0 -0 -1 -1 -1
4 3 2 2 1 1 0 0 -0 -1 -1 -1 -1 -1 -1 -0 -0 -1 -1 -1 -1 -2
3 2 2 1 1 0 -0 -0 -1 -1 -1 -1 -2 -2 -1 -1 -1 -2 -2 -2 -2 -2
3 2 1 1 0 -0 -0 -1 -1 -1 -2 -2 -2 -3 -2 -2 -2 -2 -2 -3 -3 -3
2 1 1 0 -0 -1 -1 -1 -2 -2 -3 -3 -3 -3 -3 -3 -3 -3 -3 -3 -3 -3

GFSNIL_925_temp_117.txt.gz
Temp
6 6 6 6 6 6 6 5 6 6 5 5 5 5 5 5 5 4 4 4 4 4
6 6 6 6 6 6 6 5 5 5 5 5 4 4 4 4 3 3 3 3 3 3
6 6 6 5 5 5 5 5 4 4 4 4 4 4 3 3 3 3 2 2 2 2
6 6 6 5 5 5 4 4 4 3 3 3 3 3 2 2 2 2 2 2 1 1
6 6 6 5 5 4 4 3 3 3 2 2 2 2 2 1 1 1 1 0 0 0
6 6 5 5 4 3 3 3 2 2 2 2 2 2 1 1 1 1 0 -0 -0 -0
6 6 5 4 4 4 3 2 2 1 1 1 1 1 1 1 1 0 0 -0 -0 -1
6 5 5 4 3 3 2 1 1 0 0 0 0 -0 0 0 0 0 -0 -0 -1 -1
6 5 4 3 3 2 1 1 0 0 -0 -0 -0 -1 -0 0 0 -0 -1 -1 -1 -1
5 4 4 3 2 2 1 0 0 -0 -1 -1 -1 -1 -1 -0 -1 -1 -1 -2 -2 -2
5 4 3 3 2 1 0 0 -0 -1 -1 -1 -1 -2 -1 -1 -1 -2 -2 -2 -2 -2
4 4 3 2 1 1 0 -0 -1 -1 -1 -2 -2 -2 -2 -2 -2 -2 -2 -2 -3 -3
4 3 2 2 1 0 -0 -1 -1 -2 -2 -2 -2 -3 -3 -2 -3 -3 -3 -3 -3 -3
3 2 2 1 0 -0 -1 -1 -2 -2 -2 -3 -3 -3 -3 -3 -3 -3 -3 -3 -3 -3